COSMOS 252 DEB *

基本信息
目录编号:
5322
目录名称:
COSMOS 252 DEB *
国际标识:
1968-097CJ
轨道中心:
EARTH
物体状态:
在轨
发射日期:
1968-11-01 UTC
轨道信息
数据来源: 国际轨道数据
星历时间: 2026-07-13T18:33:18+0800
半长轴: 7557.591km
偏心率: 0.068817
轨道倾角: 61.325°
近地点辐角: 320.373°
升交点赤经: 6.423°
平近点角: 34.883°
近地点: 659.363km
远地点: 1699.545km
周期: 108.977分钟
每日圈数: 13.213799
详细信息
发射场:
TTMTR
轨道高度:
LEO
数据来源:
AOE Integration Group
参考系:
TEME
时间系统:
UTC
历元类型:
SGP4
2D轨道图
3D轨道图
轨道高度分析图
轨道倾角分析图
轨道综合分析图
查看轨道综合分析图